TimeCST,TemperatureF,Dew PointF,Humidity,Sea Level PressureIn,VisibilityMPH,Wind Direction,Wind SpeedMPH,Gust SpeedMPH,PrecipitationIn,Events,Conditions,WindDirDegrees,DateUTC
12:53 AM,39.9,37.9,93,29.96,5.0,Calm,Calm,-,N/A,,Clear,0,2012-12-08 06:53:00
1:16 AM,37.4,35.6,93,29.95,1.8,WNW,3.5,-,N/A,,Clear,290,2012-12-08 07:16:00
1:25 AM,37.4,37.4,100,29.96,3.0,WNW,4.6,-,N/A,,Clear,290,2012-12-08 07:25:00
1:53 AM,39.0,36.0,89,29.97,5.0,WNW,3.5,-,N/A,,Clear,290,2012-12-08 07:53:00
2:53 AM,35.1,33.1,92,29.99,2.5,Calm,Calm,-,N/A,,Clear,0,2012-12-08 08:53:00
3:14 AM,33.8,32.0,93,29.97,1.0,Calm,Calm,-,N/A,,Mist,0,2012-12-08 09:14:00
3:23 AM,33.8,32.0,93,29.97,1.0,Calm,Calm,-,N/A,,Clear,0,2012-12-08 09:23:00
3:53 AM,34.0,32.0,92,29.99,2.5,Calm,Calm,-,N/A,,Clear,0,2012-12-08 09:53:00
4:00 AM,33.8,32.0,93,29.98,3.0,Calm,Calm,-,N/A,,Clear,0,2012-12-08 10:00:00
4:26 AM,32.0,30.2,93,29.97,1.8,Calm,Calm,-,N/A,,Clear,0,2012-12-08 10:26:00
4:31 AM,32.0,30.2,93,29.97,0.5,Calm,Calm,-,N/A,Fog,Fog,0,2012-12-08 10:31:00
4:38 AM,32.0,30.2,93,29.97,0.5,Calm,Calm,-,N/A,Fog,Fog,0,2012-12-08 10:38:00
4:53 AM,30.0,28.9,96,29.99,0.5,Calm,Calm,-,N/A,Fog,Light Freezing Fog,0,2012-12-08 10:53:00
5:06 AM,32.0,30.2,93,29.97,1.0,Calm,Calm,-,N/A,,Overcast,0,2012-12-08 11:06:00
5:33 AM,33.8,30.2,87,29.97,3.0,Calm,Calm,-,N/A,,Partly Cloudy,0,2012-12-08 11:33:00
5:46 AM,32.0,30.2,93,29.97,2.5,Calm,Calm,-,N/A,,Clear,0,2012-12-08 11:46:00
5:53 AM,30.9,30.0,96,29.99,2.5,Calm,Calm,-,N/A,,Clear,0,2012-12-08 11:53:00
6:01 AM,30.2,28.4,93,29.97,1.0,Calm,Calm,-,N/A,,Clear,0,2012-12-08 12:01:00
6:08 AM,30.2,28.4,93,29.98,0.8,Calm,Calm,-,N/A,,Clear,0,2012-12-08 12:08:00
6:16 AM,30.2,28.4,93,29.98,0.8,Calm,Calm,-,N/A,,Mist,0,2012-12-08 12:16:00
6:23 AM,28.4,26.6,93,29.98,0.5,Calm,Calm,-,N/A,Fog,Light Freezing Fog,0,2012-12-08 12:23:00
6:34 AM,30.2,28.4,93,29.99,0.5,Calm,Calm,-,N/A,Fog,Light Freezing Fog,0,2012-12-08 12:34:00
6:44 AM,30.2,26.6,86,29.98,0.2,Calm,Calm,-,N/A,Fog,Light Freezing Fog,0,2012-12-08 12:44:00
6:51 AM,30.2,28.4,93,29.99,0.2,Calm,Calm,-,N/A,Fog,Light Freezing Fog,0,2012-12-08 12:51:00
6:53 AM,28.9,28.0,96,30.01,0.2,Calm,Calm,-,N/A,Fog,Light Freezing Fog,0,2012-12-08 12:53:00
7:03 AM,30.2,28.4,93,29.99,0.2,North,3.5,-,N/A,Fog,Light Freezing Fog,360,2012-12-08 13:03:00
7:15 AM,30.2,30.2,100,29.99,1.0,NNE,3.5,-,N/A,,Mostly Cloudy,20,2012-12-08 13:15:00
7:23 AM,30.2,28.4,93,30.00,3.0,NNE,3.5,-,N/A,,Mostly Cloudy,20,2012-12-08 13:23:00
7:46 AM,32.0,30.2,93,30.00,2.5,North,5.8,-,N/A,,Overcast,10,2012-12-08 13:46:00
7:51 AM,33.8,30.2,87,30.00,0.8,North,6.9,-,N/A,,Overcast,10,2012-12-08 13:51:00
7:53 AM,33.1,30.9,92,30.01,0.5,North,6.9,-,N/A,Fog,Fog,10,2012-12-08 13:53:00
8:13 AM,33.8,32.0,93,30.00,0.2,NNE,3.5,-,N/A,Fog,Fog,20,2012-12-08 14:13:00
8:53 AM,35.1,33.1,92,30.02,0.8,ENE,4.6,-,N/A,,Mist,70,2012-12-08 14:53:00
9:01 AM,35.6,33.8,93,30.00,1.2,NE,3.5,-,N/A,,Overcast,40,2012-12-08 15:01:00
9:13 AM,35.6,33.8,93,30.00,0.5,NNE,3.5,-,N/A,Fog,Fog,20,2012-12-08 15:13:00
9:53 AM,37.0,36.0,96,30.02,0.2,NE,4.6,-,N/A,Fog,Fog,40,2012-12-08 15:53:00
10:07 AM,37.4,35.6,93,30.00,1.0,East,4.6,-,N/A,,Overcast,80,2012-12-08 16:07:00
10:20 AM,37.4,37.4,100,30.00,2.5,East,4.6,-,N/A,,Overcast,100,2012-12-08 16:20:00
10:27 AM,37.4,35.6,93,30.00,3.0,East,3.5,-,N/A,,Overcast,100,2012-12-08 16:27:00
10:35 AM,39.2,37.4,93,30.00,4.0,East,3.5,-,N/A,,Overcast,100,2012-12-08 16:35:00
10:53 AM,39.9,37.0,89,30.01,5.0,East,5.8,-,N/A,,Overcast,80,2012-12-08 16:53:00
11:19 AM,42.8,37.4,81,29.98,6.0,ENE,6.9,-,N/A,,Overcast,70,2012-12-08 17:19:00
11:53 AM,44.1,36.0,73,29.98,9.0,ESE,6.9,-,N/A,,Overcast,120,2012-12-08 17:53:00
12:01 PM,44.6,35.6,71,29.96,9.0,ESE,11.5,-,N/A,,Overcast,120,2012-12-08 18:01:00
12:20 PM,46.4,35.6,66,29.95,10.0,ESE,6.9,-,N/A,,Mostly Cloudy,110,2012-12-08 18:20:00
12:46 PM,46.4,35.6,66,29.94,9.0,ENE,4.6,-,N/A,,Mostly Cloudy,70,2012-12-08 18:46:00
12:53 PM,46.0,35.1,66,29.95,10.0,East,3.5,-,N/A,,Mostly Cloudy,90,2012-12-08 18:53:00
1:29 PM,46.4,35.6,66,29.92,8.0,SE,8.1,-,N/A,,Scattered Clouds,130,2012-12-08 19:29:00
1:53 PM,46.9,35.1,63,29.93,9.0,ESE,6.9,-,N/A,,Partly Cloudy,110,2012-12-08 19:53:00
2:53 PM,46.9,34.0,61,29.91,10.0,East,10.4,-,N/A,,Clear,80,2012-12-08 20:53:00
3:53 PM,45.0,34.0,65,29.90,9.0,East,11.5,-,N/A,,Clear,80,2012-12-08 21:53:00
4:53 PM,44.1,34.0,68,29.90,9.0,ESE,8.1,-,N/A,,Overcast,110,2012-12-08 22:53:00
5:32 PM,44.6,33.8,66,29.89,10.0,East,5.8,-,N/A,,Overcast,90,2012-12-08 23:32:00
5:53 PM,44.1,34.0,68,29.89,10.0,East,9.2,-,N/A,,Overcast,100,2012-12-08 23:53:00
6:10 PM,44.6,33.8,66,29.87,10.0,East,8.1,-,N/A,,Overcast,90,2012-12-09 00:10:00
6:53 PM,43.0,35.1,74,29.91,8.0,East,6.9,-,N/A,,Overcast,90,2012-12-09 00:53:00
7:14 PM,42.8,35.6,76,29.90,8.0,ENE,5.8,-,N/A,,Overcast,70,2012-12-09 01:14:00
7:31 PM,42.8,35.6,76,29.90,4.0,ENE,6.9,-,N/A,,Haze,70,2012-12-09 01:31:00
7:53 PM,41.0,37.0,86,29.91,4.0,East,6.9,-,0.00,Rain,Light Rain,90,2012-12-09 01:53:00
8:44 PM,39.2,37.4,93,29.88,3.0,East,8.1,-,0.00,,Overcast,90,2012-12-09 02:44:00
8:51 PM,39.2,37.4,93,29.88,3.0,East,6.9,-,0.00,,Overcast,80,2012-12-09 02:51:00
8:53 PM,39.2,37.4,93,29.88,4.0,East,6.9,-,N/A,,Overcast,80,2012-12-09 02:53:00
9:53 PM,41.0,37.9,89,29.89,4.0,East,5.8,-,N/A,,Overcast,90,2012-12-09 03:53:00
10:53 PM,41.0,37.9,89,29.89,4.0,East,3.5,-,N/A,,Overcast,90,2012-12-09 04:53:00
11:53 PM,41.0,39.0,93,29.89,4.0,Calm,Calm,-,N/A,,Overcast,0,2012-12-09 05:53:00